Weather History for Cape Race, NL

Change the Weather History Date:

Sunday, November 24, 2013

  Actual Average Record
Temperature  
Mean Temperature 38 °F -  
Max Temperature 42 °F - - ()
Min Temperature 34 °F - - ()
Degree Days  
Heating Degree Days 27    
Moisture  
Dew Point 34 °F    
Average Humidity 81    
Maximum Humidity 99    
Minimum Humidity 66    
Precipitation  
Precipitation 0.04 in - - ()
Sea Level Pressure  
Sea Level Pressure 29.40 in    
Wind  
Wind Speed 24 mph ()    
Max Wind Speed 36 mph    
Max Gust Speed 51 mph    
T = Trace of Precipitation, MM = Missing Value Source: Averaged Metar Reports

Daily Weather History Graph

Daily Weather History Graph

Search for Another Location

Airport:

Trip Planner

Search our weather history database for the weather conditions in past years. The results will help you decide how hot, cold, wet, or windy it might be!

Date:

Astronomy

Nov. 24, 2013 Rise Set
Actual Time 7:17 AM NST 4:20 PM NST
Civil Twilight 6:43 AM NST 4:54 PM NST
Nautical Twilight 6:06 AM NST 5:31 PM NST
Astronomical Twilight 5:30 AM NST 6:07 PM NST
Moon 10:52 PM NST (11/24) 11:51 AM NST (11/24)
Length of Visible Light 10h 10m
Length of Day
9h 02m
Waning Gibbous, 61% of the Moon is Illuminated
Nov 24
Waning Gibbous
Nov 25
Last Quarter
Dec 2
New
Dec 9
First Quarter
Dec 17
Full

Hourly Weather History & Observations

Time (NST) Temp. Windchill Dew Point Humidity Pressure Visibility Wind Dir Wind Speed Gust Speed Precip Events Conditions
12:30 AM 39.4 °F 27.5 °F 36.0 °F 88% 29.28 in - WSW 31.1 mph 42.6 mph N/A   Unknown
1:30 AM 38.3 °F 25.2 °F 35.6 °F 90% 29.29 in - WSW 35.7 mph 50.6 mph N/A   Unknown
2:30 AM 39 °F - 35 °F 80% 29.33 in - WSW 31.1 mph - -  
2:30 AM 38.8 °F 26.7 °F 34.9 °F 86% 29.33 in - WSW 31.1 mph 38.0 mph 0.04 in   Unknown
3:30 AM 38.3 °F 26.0 °F 33.3 °F 82% 29.35 in - WSW 31.1 mph 44.9 mph N/A   Unknown
4:30 AM 39.4 °F 27.5 °F 33.6 °F 80% 29.38 in - WSW 31.1 mph 43.7 mph N/A   Unknown
5:30 AM 38 °F - 31 °F 66% 29.39 in - WSW 29.9 mph - -  
5:30 AM 37.8 °F 25.4 °F 30.6 °F 75% 29.39 in - WSW 29.9 mph 40.3 mph N/A   Unknown
6:30 AM 40.5 °F 29.5 °F 34.0 °F 78% 29.40 in - WSW 27.6 mph 35.7 mph N/A   Unknown
7:30 AM 38.5 °F 27.3 °F 34.2 °F 84% 29.43 in - WSW 25.3 mph 34.5 mph N/A   Unknown
8:30 AM 39 °F - 32 °F 66% 29.47 in - WSW 32.2 mph - -  
8:30 AM 38.7 °F 26.3 °F 31.6 °F 76% 29.47 in - WSW 32.2 mph 44.9 mph N/A   Unknown
9:30 AM 38.8 °F 26.2 °F 30.9 °F 73% 29.49 in - WSW 34.5 mph 46.0 mph N/A   Unknown
10:30 AM 38.3 °F 26.8 °F 30.2 °F 73% 29.50 in - WSW 26.5 mph 35.7 mph N/A   Unknown
11:30 AM 40 °F - 33 °F 67% 29.48 in - SW 21.9 mph - -  
11:30 AM 40.5 °F 30.7 °F 31.3 °F 70% 29.48 in - SW 21.9 mph 29.9 mph N/A   Unknown
12:30 PM 39.6 °F 29.2 °F 31.6 °F 73% 29.49 in - SW 23.0 mph 33.4 mph N/A   Unknown
1:30 PM 39.6 °F 30.3 °F 31.8 °F 74% 29.45 in - SW 18.4 mph - N/A   Unknown
2:30 PM 39 °F - 33 °F 72% 29.44 in - SSW 16.1 mph - -  
2:30 PM 39.0 °F 30.3 °F 33.1 °F 79% 29.44 in - SSW 16.1 mph - N/A   Unknown
3:30 PM 41.4 °F 34.0 °F 34.7 °F 77% 29.42 in - SSW 13.8 mph - N/A   Unknown
4:30 PM 40.5 °F 32.8 °F 35.8 °F 83% 29.44 in - South 13.8 mph - N/A   Unknown
5:30 PM 41 °F - 35 °F 73% 29.42 in - South 15.0 mph - -  
5:30 PM 40.8 °F 32.9 °F 35.2 °F 80% 29.42 in - South 15.0 mph 24.2 mph N/A   Unknown
6:30 PM 41.0 °F 32.8 °F 37.2 °F 86% 29.41 in - South 16.1 mph 23.0 mph N/A   Unknown
7:30 PM 38.1 °F 30.2 °F 36.9 °F 95% 29.37 in - SSE 12.7 mph 19.6 mph N/A   Unknown
8:30 PM 40 °F - 39 °F 97% 29.32 in - SSE 19.6 mph - -  
8:30 PM 40.3 °F 31.0 °F 39.4 °F 97% 29.32 in - SSE 19.6 mph 29.9 mph 0.04 in   Unknown
9:30 PM 42.4 °F 32.4 °F 42.1 °F 99% 29.29 in - South 26.5 mph 43.7 mph 0.03 in   Unknown
10:30 PM 37.4 °F 27.8 °F 36.3 °F 96% 29.34 in - WNW 17.3 mph - N/A   Unknown
11:30 PM 38 °F - 36 °F 92% 29.41 in - West 24.2 mph - -  
11:30 PM 37.6 °F 26.3 °F 36.5 °F 96% 29.41 in - West 24.2 mph 32.2 mph N/A   Unknown